Flag for U.S.A. Weather past 2 weeks in Long Beach, California, U.S.A.

Now
66 °F

Sunny.


Feels Like: 66 °F
Forecast: 51 / 70 °F
Wind: 8 mph from South

Location: Long Beach Airport

Current Time: Feb 26, 2015 at 3:35:42 PM

Latest Report: Feb 26, 2015 at 2:53 PM


Visibility: 10 mi

Pressure: 29.85 "Hg

Humidity: 61%

Dew point: 52 °F

Location of Long BeachLocation

Historic Weather in Long Beach — Graph

°F

Long Beach temperature yesterday

Maximum temperature yesterday: 70 °F (at 1:53 PM)
Minimum temperature yesterday: 50 °F (at 6:53 AM)
Average temperature yesterday: 59 °F

Past Weeks' High & Low Weather Summary

 TemperatureHumidityPressure
High88 °F (Feb 12, 2:53 PM)96% (Feb 23, 6:53 AM)30.24 "Hg (Feb 23, 6:53 AM)
Low45 °F (Feb 24, 5:53 AM)10% (Feb 13, 12:53 PM)29.83 "Hg (Feb 22, 6:53 PM)
Average63 °F63%30.02 "Hg
* Reported Feb 11 1:53 PM — Feb 26 1:53 PM, Long Beach, Weather by CustomWeather, © 2015

Note: Actual official high and low records may vary slightly from our data, if they occured in-between our weather recording intervals... More about our weather records

Advertising

Long Beach weather history for previous 24 hours

 ConditionsComfort  
Time TempWeatherWind HumidityBarometerVisibility
1:53 PM
Thu, Feb 26
66 °FSunny.9 mph54%29.86 "Hg10 mi
12:53 PM66 °FSunny.5 mph56%29.89 "Hg10 mi
11:53 AM65 °FScattered clouds.No wind66%29.92 "Hg10 mi
10:53 AM64 °FSunny.3 mph68%29.94 "Hg9 mi
9:53 AM62 °FPassing clouds.5 mph70%29.96 "Hg9 mi
8:53 AM58 °FSunny.3 mph81%29.96 "Hg6 mi
7:57 AM53 °FOvercast.No wind93%29.97 "Hg2 mi
6:53 AM51 °FPassing clouds.No wind86%29.96 "Hg8 mi
5:53 AM51 °FPassing clouds.3 mph86%29.95 "Hg10 mi
5:01 AM51 °FPassing clouds.No wind86%29.93 "Hg10 mi
4:04 AM52 °FPassing clouds.No wind89%29.94 "Hg10 mi
3:53 AM51 °FPassing clouds.No wind86%29.95 "Hg10 mi
2:53 AM52 °FClear.No wind89%29.96 "Hg10 mi
1:53 AM53 °FClear.No wind89%29.98 "Hg8 mi
12:53 AM54 °FClear.No wind86%30.01 "Hg9 mi
11:53 PM
Wed, Feb 25
56 °FClear.No wind84%30.02 "Hg9 mi
10:53 PM56 °FClear.No wind87%30.02 "Hg9 mi
9:53 PM58 °FClear.No wind81%30.03 "Hg10 mi
8:53 PM59 °FClear.5 mph78%30.03 "Hg10 mi
7:53 PM60 °FClear.3 mph75%30.03 "Hg10 mi
6:53 PM61 °FClear.7 mph70%30.02 "Hg10 mi
5:53 PM63 °FClear.8 mph60%30.01 "Hg10 mi
4:53 PM65 °FSunny.7 mph63%30.02 "Hg10 mi
3:53 PM66 °FSunny.9 mph50%30.02 "Hg10 mi
Weather by CustomWeather, © 2015

See weather overviewHow to use our weather pages